Year,Month,Day,Hour,Minute,Value (Times are PST for temperature in C)
2006,06,27,00,00,17.10
2006,06,27,00,01,17.00
2006,06,27,00,02,17.00
2006,06,27,00,03,17.00
2006,06,27,00,04,17.00
2006,06,27,00,05,17.00
2006,06,27,00,06,16.90
2006,06,27,00,07,16.90
2006,06,27,00,08,16.90
2006,06,27,00,09,16.80
2006,06,27,00,10,16.80
2006,06,27,00,11,16.70
2006,06,27,00,12,16.70
2006,06,27,00,13,16.70
2006,06,27,00,14,16.70
2006,06,27,00,15,16.60
2006,06,27,00,16,16.60
2006,06,27,00,17,16.60
2006,06,27,00,18,16.50
2006,06,27,00,19,16.40
2006,06,27,00,20,16.40
2006,06,27,00,21,16.40
2006,06,27,00,22,16.40
2006,06,27,00,23,16.40
2006,06,27,00,24,16.40
2006,06,27,00,25,16.40
2006,06,27,00,26,16.40
2006,06,27,00,27,16.30
2006,06,27,00,28,16.20
2006,06,27,00,29,16.10
2006,06,27,00,30,15.90
2006,06,27,00,31,15.70
2006,06,27,00,32,15.60
2006,06,27,00,33,15.50
2006,06,27,00,34,15.40
2006,06,27,00,35,15.30
2006,06,27,00,36,15.20
2006,06,27,00,37,15.10
2006,06,27,00,38,15.00
2006,06,27,00,39,15.00
2006,06,27,00,40,14.90
2006,06,27,00,41,14.80
2006,06,27,00,42,14.80
2006,06,27,00,43,14.80
2006,06,27,00,44,14.80
2006,06,27,00,45,14.80
2006,06,27,00,46,14.80
2006,06,27,00,47,14.80
2006,06,27,00,48,14.80
2006,06,27,00,49,14.80
2006,06,27,00,50,14.80
2006,06,27,00,51,14.70
2006,06,27,00,52,14.70
2006,06,27,00,53,14.60
2006,06,27,00,54,14.60
2006,06,27,00,55,14.60
2006,06,27,00,56,14.50
2006,06,27,00,57,14.50
2006,06,27,00,58,14.40
2006,06,27,00,59,14.30
2006,06,27,01,00,14.20
2006,06,27,01,01,14.20
2006,06,27,01,02,14.20
2006,06,27,01,03,14.20
2006,06,27,01,04,14.20
2006,06,27,01,05,14.20
2006,06,27,01,06,14.20
2006,06,27,01,07,14.20
2006,06,27,01,08,14.10
2006,06,27,01,09,14.10
2006,06,27,01,10,14.00
2006,06,27,01,11,14.00
2006,06,27,01,12,14.00
2006,06,27,01,13,14.00
2006,06,27,01,14,14.00
2006,06,27,01,15,14.00
2006,06,27,01,16,14.00
2006,06,27,01,17,14.00
2006,06,27,01,18,14.00
2006,06,27,01,19,14.00
2006,06,27,01,20,14.00
2006,06,27,01,21,14.00
2006,06,27,01,22,14.00
2006,06,27,01,23,13.90
2006,06,27,01,24,13.90
2006,06,27,01,25,13.90
2006,06,27,01,26,13.90
2006,06,27,01,27,13.90
2006,06,27,01,28,13.90
2006,06,27,01,29,14.00
2006,06,27,01,30,14.00
2006,06,27,01,31,14.00
2006,06,27,01,32,14.00
2006,06,27,01,33,13.90
2006,06,27,01,34,13.90
2006,06,27,01,35,13.80
2006,06,27,01,36,13.70
2006,06,27,01,37,13.70
2006,06,27,01,38,13.60
2006,06,27,01,39,13.50
2006,06,27,01,40,13.50
2006,06,27,01,41,13.40
2006,06,27,01,42,13.30
2006,06,27,01,43,13.20
2006,06,27,01,44,13.20
2006,06,27,01,45,13.10
2006,06,27,01,46,13.00
2006,06,27,01,47,13.00
2006,06,27,01,48,12.90
2006,06,27,01,49,12.90
2006,06,27,01,50,12.80
2006,06,27,01,51,12.80
2006,06,27,01,52,12.80
2006,06,27,01,53,12.80
2006,06,27,01,54,12.80
2006,06,27,01,55,12.80
2006,06,27,01,56,12.80
2006,06,27,01,57,12.80
2006,06,27,01,58,12.80
2006,06,27,01,59,12.80
2006,06,27,02,00,12.80
2006,06,27,02,01,12.80
2006,06,27,02,02,12.90
2006,06,27,02,03,12.90
2006,06,27,02,04,12.90
2006,06,27,02,05,12.90
2006,06,27,02,06,12.90
2006,06,27,02,07,12.90
2006,06,27,02,08,12.90
2006,06,27,02,09,12.90
2006,06,27,02,10,12.90
2006,06,27,02,11,12.90
2006,06,27,02,12,12.90
2006,06,27,02,13,12.90
2006,06,27,02,14,12.90
2006,06,27,02,15,12.90
2006,06,27,02,16,12.90
2006,06,27,02,17,13.00
2006,06,27,02,18,13.00
2006,06,27,02,19,13.00
2006,06,27,02,20,13.00
2006,06,27,02,21,13.00
2006,06,27,02,22,13.10
2006,06,27,02,23,13.10
2006,06,27,02,24,13.10
2006,06,27,02,25,13.20
2006,06,27,02,26,13.20
2006,06,27,02,27,13.20
2006,06,27,02,28,13.20
2006,06,27,02,29,13.20
2006,06,27,02,30,13.20
2006,06,27,02,31,13.20
2006,06,27,02,32,13.20
2006,06,27,02,33,13.20
2006,06,27,02,34,13.20
2006,06,27,02,35,13.20
2006,06,27,02,36,13.20
2006,06,27,02,37,13.20
2006,06,27,02,38,13.20
2006,06,27,02,39,13.10
2006,06,27,02,40,13.10
2006,06,27,02,41,13.20
2006,06,27,02,42,13.10
2006,06,27,02,43,13.10
2006,06,27,02,44,13.10
2006,06,27,02,45,13.00
2006,06,27,02,46,13.00
2006,06,27,02,47,12.90
2006,06,27,02,48,12.80
2006,06,27,02,49,12.80
2006,06,27,02,50,12.70
2006,06,27,02,51,12.70
2006,06,27,02,52,12.70
2006,06,27,02,53,12.70
2006,06,27,02,54,12.70
2006,06,27,02,55,12.60
2006,06,27,02,56,12.60
2006,06,27,02,57,12.60
2006,06,27,02,58,12.60
2006,06,27,02,59,12.60
2006,06,27,03,00,12.50
2006,06,27,03,01,12.50
2006,06,27,03,02,12.50
2006,06,27,03,03,12.50
2006,06,27,03,04,12.50
2006,06,27,03,05,12.50
2006,06,27,03,06,12.50
2006,06,27,03,07,12.50
2006,06,27,03,08,12.50
2006,06,27,03,09,12.50
2006,06,27,03,10,12.50
2006,06,27,03,11,12.60
2006,06,27,03,12,12.60
2006,06,27,03,13,12.60
2006,06,27,03,14,12.60
2006,06,27,03,15,12.60
2006,06,27,03,16,12.60
2006,06,27,03,17,12.60
2006,06,27,03,18,12.60
2006,06,27,03,19,12.70
2006,06,27,03,20,12.70
2006,06,27,03,21,12.70
2006,06,27,03,22,12.70
2006,06,27,03,23,12.70
2006,06,27,03,24,12.70
2006,06,27,03,25,12.70
2006,06,27,03,26,12.70
2006,06,27,03,27,12.70
2006,06,27,03,28,12.80
2006,06,27,03,29,12.80
2006,06,27,03,30,12.80
2006,06,27,03,31,12.80
2006,06,27,03,32,12.80
2006,06,27,03,33,12.80
2006,06,27,03,34,12.80
2006,06,27,03,35,12.80
2006,06,27,03,36,12.80
2006,06,27,03,37,12.80
2006,06,27,03,38,12.80
2006,06,27,03,39,12.80
2006,06,27,03,40,12.80
2006,06,27,03,41,12.80
2006,06,27,03,42,12.80
2006,06,27,03,43,12.80
2006,06,27,03,44,12.80
2006,06,27,03,45,12.80
2006,06,27,03,46,12.90
2006,06,27,03,47,12.90
2006,06,27,03,48,12.90
2006,06,27,03,49,12.90
2006,06,27,03,50,12.90
2006,06,27,03,51,12.90
2006,06,27,03,52,12.90
2006,06,27,03,53,12.90
2006,06,27,03,54,12.90
2006,06,27,03,55,12.90
2006,06,27,03,56,12.90
2006,06,27,03,57,12.90
2006,06,27,03,58,12.90
2006,06,27,03,59,12.90
2006,06,27,04,00,12.90
2006,06,27,04,01,12.80
2006,06,27,04,02,12.80
2006,06,27,04,03,12.80
2006,06,27,04,04,12.80
2006,06,27,04,05,12.80
2006,06,27,04,06,12.70
2006,06,27,04,07,12.70
2006,06,27,04,08,12.70
2006,06,27,04,09,12.70
2006,06,27,04,10,12.60
2006,06,27,04,11,12.60
2006,06,27,04,12,12.60
2006,06,27,04,13,12.60
2006,06,27,04,14,12.60
2006,06,27,04,15,12.60
2006,06,27,04,16,12.60
2006,06,27,04,17,12.60
2006,06,27,04,18,12.60
2006,06,27,04,19,12.60
2006,06,27,04,20,12.60
2006,06,27,04,21,12.60
2006,06,27,04,22,12.60
2006,06,27,04,23,12.60
2006,06,27,04,24,12.60
2006,06,27,04,25,12.70
2006,06,27,04,26,12.70
2006,06,27,04,27,12.70
2006,06,27,04,28,12.70
2006,06,27,04,29,12.70
2006,06,27,04,30,12.70
2006,06,27,04,31,12.80
2006,06,27,04,32,12.80
2006,06,27,04,33,12.80
2006,06,27,04,34,12.80
2006,06,27,04,35,12.80
2006,06,27,04,36,12.80
2006,06,27,04,37,12.80
2006,06,27,04,38,12.90
2006,06,27,04,39,12.90
2006,06,27,04,40,12.90
2006,06,27,04,41,12.90
2006,06,27,04,42,12.80
2006,06,27,04,43,12.70
2006,06,27,04,44,12.70
2006,06,27,04,45,12.60
2006,06,27,04,46,12.60
2006,06,27,04,47,12.50
2006,06,27,04,48,12.50
2006,06,27,04,49,12.40
2006,06,27,04,50,12.40
2006,06,27,04,51,12.40
2006,06,27,04,52,12.40
2006,06,27,04,53,12.40
2006,06,27,04,54,12.50
2006,06,27,04,55,12.50
2006,06,27,04,56,12.50
2006,06,27,04,57,12.50
2006,06,27,04,58,12.50
2006,06,27,04,59,12.50
2006,06,27,05,00,12.50
2006,06,27,05,01,12.60
2006,06,27,05,02,12.60
2006,06,27,05,03,12.60
2006,06,27,05,04,12.60
2006,06,27,05,05,12.60
2006,06,27,05,06,12.60
2006,06,27,05,07,12.60
2006,06,27,05,08,12.70
2006,06,27,05,09,12.80
2006,06,27,05,10,12.80
2006,06,27,05,11,12.80
2006,06,27,05,12,12.80
2006,06,27,05,13,12.80
2006,06,27,05,14,12.80
2006,06,27,05,15,12.80
2006,06,27,05,16,12.80
2006,06,27,05,17,12.80
2006,06,27,05,18,12.80
2006,06,27,05,19,12.80
2006,06,27,05,20,12.80
2006,06,27,05,21,12.80
2006,06,27,05,22,12.80
2006,06,27,05,23,12.80
2006,06,27,05,24,12.80
2006,06,27,05,25,12.80
2006,06,27,05,26,12.80
2006,06,27,05,27,12.80
2006,06,27,05,28,12.80
2006,06,27,05,29,12.80
2006,06,27,05,30,12.80
2006,06,27,05,31,12.90
2006,06,27,05,32,12.90
2006,06,27,05,33,13.00
2006,06,27,05,34,13.10
2006,06,27,05,35,13.10
2006,06,27,05,36,13.10
2006,06,27,05,37,13.20
2006,06,27,05,38,13.20
2006,06,27,05,39,13.30
2006,06,27,05,40,13.30
2006,06,27,05,41,13.40
2006,06,27,05,42,13.40
2006,06,27,05,43,13.40
2006,06,27,05,44,13.50
2006,06,27,05,45,13.50
2006,06,27,05,46,13.60
2006,06,27,05,47,13.60
2006,06,27,05,48,13.60
2006,06,27,05,49,13.70
2006,06,27,05,50,13.70
2006,06,27,05,51,13.70
2006,06,27,05,52,13.70
2006,06,27,05,53,13.70
2006,06,27,05,54,13.70
2006,06,27,05,55,13.70
2006,06,27,05,56,13.70
2006,06,27,05,57,13.70
2006,06,27,05,58,13.70
2006,06,27,05,59,13.60
2006,06,27,06,00,13.60
2006,06,27,06,01,13.60
2006,06,27,06,02,13.60
2006,06,27,06,03,13.60
2006,06,27,06,04,13.60
2006,06,27,06,05,13.70
2006,06,27,06,06,13.70
2006,06,27,06,07,13.70
2006,06,27,06,08,13.70
2006,06,27,06,09,13.70
2006,06,27,06,10,13.70
2006,06,27,06,11,13.70
2006,06,27,06,12,13.70
2006,06,27,06,13,13.60
2006,06,27,06,14,13.60
2006,06,27,06,15,13.60
2006,06,27,06,16,13.50
2006,06,27,06,17,13.50
2006,06,27,06,18,13.50
2006,06,27,06,19,13.50
2006,06,27,06,20,13.50
2006,06,27,06,21,13.50
2006,06,27,06,22,13.60
2006,06,27,06,23,13.60
2006,06,27,06,24,13.60
2006,06,27,06,25,13.60
2006,06,27,06,26,13.60
2006,06,27,06,27,13.60
2006,06,27,06,28,13.60
2006,06,27,06,29,13.60
2006,06,27,06,30,13.60
2006,06,27,06,31,13.60
2006,06,27,06,32,13.60
2006,06,27,06,33,13.60
2006,06,27,06,34,13.60
2006,06,27,06,35,13.60
2006,06,27,06,36,13.70
2006,06,27,06,37,13.70
2006,06,27,06,38,13.70
2006,06,27,06,39,13.70
2006,06,27,06,40,13.70
2006,06,27,06,41,13.70
2006,06,27,06,42,13.70
2006,06,27,06,43,13.70
2006,06,27,06,44,13.70
2006,06,27,06,45,13.80
2006,06,27,06,46,13.90
2006,06,27,06,47,13.90
2006,06,27,06,48,14.00
2006,06,27,06,49,14.10
2006,06,27,06,50,14.20
2006,06,27,06,51,14.30
2006,06,27,06,52,14.40
2006,06,27,06,53,14.50
2006,06,27,06,54,14.60
2006,06,27,06,55,14.60
2006,06,27,06,56,14.80
2006,06,27,06,57,14.80
2006,06,27,06,58,14.90
2006,06,27,06,59,15.00
2006,06,27,07,00,15.10
2006,06,27,07,01,15.20
2006,06,27,07,02,15.30
2006,06,27,07,03,15.40
2006,06,27,07,04,15.40
2006,06,27,07,05,15.50
2006,06,27,07,06,15.60
2006,06,27,07,07,15.60
2006,06,27,07,08,15.60
2006,06,27,07,09,15.70
2006,06,27,07,10,15.80
2006,06,27,07,11,15.80
2006,06,27,07,12,15.80
2006,06,27,07,13,15.80
2006,06,27,07,14,15.80
2006,06,27,07,15,15.80
2006,06,27,07,16,15.80
2006,06,27,07,17,15.80
2006,06,27,07,18,15.90
2006,06,27,07,19,15.90
2006,06,27,07,20,15.90
2006,06,27,07,21,16.00
2006,06,27,07,22,16.10
2006,06,27,07,23,16.20
2006,06,27,07,24,16.30
2006,06,27,07,25,16.30
2006,06,27,07,26,16.30
2006,06,27,07,27,16.30
2006,06,27,07,28,16.40
2006,06,27,07,29,16.40
2006,06,27,07,30,16.30
2006,06,27,07,31,16.20
2006,06,27,07,32,15.80
2006,06,27,07,33,15.60
2006,06,27,07,34,15.30
2006,06,27,07,35,15.00
2006,06,27,07,36,14.70
2006,06,27,07,37,14.60
2006,06,27,07,38,14.30
2006,06,27,07,39,14.20
2006,06,27,07,40,14.10
2006,06,27,07,41,14.00
2006,06,27,07,42,13.90
2006,06,27,07,43,13.80
2006,06,27,07,44,13.80
2006,06,27,07,45,13.70
2006,06,27,07,46,13.70
2006,06,27,07,47,13.70
2006,06,27,07,48,13.70
2006,06,27,07,49,13.70
2006,06,27,07,50,13.70
2006,06,27,07,51,13.80
2006,06,27,07,52,13.90
2006,06,27,07,53,13.90
2006,06,27,07,54,14.00
2006,06,27,07,55,14.20
2006,06,27,07,56,14.30
2006,06,27,07,57,14.50
2006,06,27,07,58,14.70
2006,06,27,07,59,14.80
2006,06,27,08,00,15.00
2006,06,27,08,01,15.10
2006,06,27,08,02,15.30
2006,06,27,08,03,15.40
2006,06,27,08,04,15.60
2006,06,27,08,05,15.70
2006,06,27,08,06,16.00
2006,06,27,08,07,16.20
2006,06,27,08,08,16.40
2006,06,27,08,09,16.60
2006,06,27,08,10,16.80
2006,06,27,08,11,17.00
2006,06,27,08,12,17.10
2006,06,27,08,13,17.20
2006,06,27,08,14,17.20
2006,06,27,08,15,17.30
2006,06,27,08,16,17.30
2006,06,27,08,17,17.20
2006,06,27,08,18,17.20
2006,06,27,08,19,17.10
2006,06,27,08,20,17.10
2006,06,27,08,21,17.00
2006,06,27,08,22,17.00
2006,06,27,08,23,16.90
2006,06,27,08,24,16.90
2006,06,27,08,25,16.90
2006,06,27,08,26,16.90
2006,06,27,08,27,16.90
2006,06,27,08,28,16.80
2006,06,27,08,29,16.80
2006,06,27,08,30,16.70
2006,06,27,08,31,16.50
2006,06,27,08,32,16.20
2006,06,27,08,33,15.90
2006,06,27,08,34,15.60
2006,06,27,08,35,15.30
2006,06,27,08,36,15.00
2006,06,27,08,37,14.80
2006,06,27,08,38,14.70
2006,06,27,08,39,14.70
2006,06,27,08,40,14.70
2006,06,27,08,41,14.70
2006,06,27,08,42,14.80
2006,06,27,08,43,14.80
2006,06,27,08,44,14.90
2006,06,27,08,45,15.00
2006,06,27,08,46,15.10
2006,06,27,08,47,15.10
2006,06,27,08,48,15.30
2006,06,27,08,49,15.40
2006,06,27,08,50,15.50
2006,06,27,08,51,15.60
2006,06,27,08,52,15.70
2006,06,27,08,53,15.70
2006,06,27,08,54,15.80
2006,06,27,08,55,15.80
2006,06,27,08,56,15.80
2006,06,27,08,57,15.80
2006,06,27,08,58,15.80
2006,06,27,08,59,15.80
2006,06,27,09,00,15.80
2006,06,27,09,01,15.80
2006,06,27,09,02,15.80
2006,06,27,09,03,15.80
2006,06,27,09,04,15.80
2006,06,27,09,05,16.00
2006,06,27,09,06,16.10
2006,06,27,09,07,16.20
2006,06,27,09,08,16.30
2006,06,27,09,09,16.40
2006,06,27,09,10,16.50
2006,06,27,09,11,16.60
2006,06,27,09,12,16.70
2006,06,27,09,13,16.80
2006,06,27,09,14,16.90
2006,06,27,09,15,16.90
2006,06,27,09,16,17.00
2006,06,27,09,17,17.00
2006,06,27,09,18,17.10
2006,06,27,09,19,17.10
2006,06,27,09,20,17.20
2006,06,27,09,21,17.30
2006,06,27,09,22,17.30
2006,06,27,09,23,17.30
2006,06,27,09,24,17.30
2006,06,27,09,25,17.30
2006,06,27,09,26,17.40
2006,06,27,09,27,17.40
2006,06,27,09,28,17.50
2006,06,27,09,29,17.60
2006,06,27,09,30,17.60
2006,06,27,09,31,17.70
2006,06,27,09,32,17.70
2006,06,27,09,33,17.80
2006,06,27,09,34,18.00
2006,06,27,09,35,18.20
2006,06,27,09,36,18.30
2006,06,27,09,37,18.40
2006,06,27,09,38,18.40
2006,06,27,09,39,18.50
2006,06,27,09,40,18.60
2006,06,27,09,41,18.60
2006,06,27,09,42,18.60
2006,06,27,09,43,18.60
2006,06,27,09,44,18.60
2006,06,27,09,45,18.70
2006,06,27,09,46,18.70
2006,06,27,09,47,18.70
2006,06,27,09,48,18.70
2006,06,27,09,49,18.70
2006,06,27,09,50,18.70
2006,06,27,09,51,18.70
2006,06,27,09,52,18.50
2006,06,27,09,53,18.40
2006,06,27,09,54,18.20
2006,06,27,09,55,18.00
2006,06,27,09,56,17.90
2006,06,27,09,57,17.90
2006,06,27,09,58,17.90
2006,06,27,09,59,17.90
2006,06,27,10,00,17.80
2006,06,27,10,01,17.80
2006,06,27,10,02,17.80
2006,06,27,10,03,17.70
2006,06,27,10,04,17.70
2006,06,27,10,05,17.60
2006,06,27,10,06,17.60
2006,06,27,10,07,17.70
2006,06,27,10,08,17.70
2006,06,27,10,09,17.80
2006,06,27,10,10,17.80
2006,06,27,10,11,17.80
2006,06,27,10,12,17.80
2006,06,27,10,13,17.80
2006,06,27,10,14,17.90
2006,06,27,10,15,17.90
2006,06,27,10,16,18.00
2006,06,27,10,17,18.10
2006,06,27,10,18,18.20
2006,06,27,10,19,18.20
2006,06,27,10,20,18.30
2006,06,27,10,21,18.30
2006,06,27,10,22,18.40
2006,06,27,10,23,18.40
2006,06,27,10,24,18.50
2006,06,27,10,25,18.60
2006,06,27,10,26,18.80
2006,06,27,10,27,18.90
2006,06,27,10,28,19.10
2006,06,27,10,29,19.30
2006,06,27,10,30,19.40
2006,06,27,10,31,19.50
2006,06,27,10,32,19.70
2006,06,27,10,33,19.70
2006,06,27,10,34,19.60
2006,06,27,10,35,19.60
2006,06,27,10,36,19.60
2006,06,27,10,37,19.50
2006,06,27,10,38,19.50
2006,06,27,10,39,19.40
2006,06,27,10,40,19.40
2006,06,27,10,41,19.40
2006,06,27,10,42,19.40
2006,06,27,10,43,19.50
2006,06,27,10,44,19.70
2006,06,27,10,45,20.00
2006,06,27,10,46,20.10
2006,06,27,10,47,20.20
2006,06,27,10,48,20.40
2006,06,27,10,49,20.40
2006,06,27,10,50,20.40
2006,06,27,10,51,20.50
2006,06,27,10,52,20.50
2006,06,27,10,53,20.50
2006,06,27,10,54,20.50
2006,06,27,10,55,20.40
2006,06,27,10,56,20.40
2006,06,27,10,57,20.20
2006,06,27,10,58,20.10
2006,06,27,10,59,19.90
2006,06,27,11,00,19.80
2006,06,27,11,01,19.70
2006,06,27,11,02,19.60
2006,06,27,11,03,19.60
2006,06,27,11,04,19.50
2006,06,27,11,05,19.40
2006,06,27,11,06,19.30
2006,06,27,11,07,19.10
2006,06,27,11,08,19.00
2006,06,27,11,09,18.90
2006,06,27,11,10,18.90
2006,06,27,11,11,18.90
2006,06,27,11,12,18.90
2006,06,27,11,13,18.70
2006,06,27,11,14,18.70
2006,06,27,11,15,18.70
2006,06,27,11,16,18.70
2006,06,27,11,17,18.70
2006,06,27,11,18,18.70
2006,06,27,11,19,18.80
2006,06,27,11,20,18.80
2006,06,27,11,21,19.10
2006,06,27,11,22,19.20
2006,06,27,11,23,19.30
2006,06,27,11,24,19.50
2006,06,27,11,25,19.90
2006,06,27,11,26,20.00
2006,06,27,11,27,20.20
2006,06,27,11,28,20.40
2006,06,27,11,29,20.50
2006,06,27,11,30,20.50
2006,06,27,11,31,20.50
2006,06,27,11,32,20.50
2006,06,27,11,33,20.40
2006,06,27,11,34,20.30
2006,06,27,11,35,20.20
2006,06,27,11,36,20.20
2006,06,27,11,37,20.20
2006,06,27,11,38,20.20
2006,06,27,11,39,20.30
2006,06,27,11,40,20.30
2006,06,27,11,41,20.30
2006,06,27,11,42,20.40
2006,06,27,11,43,20.40
2006,06,27,11,44,20.40
2006,06,27,11,45,20.40
2006,06,27,11,46,20.40
2006,06,27,11,47,20.40
2006,06,27,11,48,20.40
2006,06,27,11,49,20.40
2006,06,27,11,50,20.50
2006,06,27,11,51,20.50
2006,06,27,11,52,20.50
2006,06,27,11,53,20.60
2006,06,27,11,54,20.70
2006,06,27,11,55,20.70
2006,06,27,11,56,20.70
2006,06,27,11,57,20.70
2006,06,27,11,58,20.80
2006,06,27,11,59,20.80
2006,06,27,12,00,20.80
2006,06,27,12,01,20.80
2006,06,27,12,02,21.00
2006,06,27,12,03,21.30
2006,06,27,12,04,21.30
2006,06,27,12,05,21.30
2006,06,27,12,06,21.20
2006,06,27,12,07,21.20
2006,06,27,12,08,21.20
2006,06,27,12,09,21.30
2006,06,27,12,10,21.40
2006,06,27,12,11,21.50
2006,06,27,12,12,21.60
2006,06,27,12,13,21.60
2006,06,27,12,14,21.60
2006,06,27,12,15,21.60
2006,06,27,12,16,21.60
2006,06,27,12,17,21.50
2006,06,27,12,18,21.30
2006,06,27,12,19,21.30
2006,06,27,12,20,21.30
2006,06,27,12,21,21.30
2006,06,27,12,22,21.30
2006,06,27,12,23,21.30
2006,06,27,12,24,21.30
2006,06,27,12,25,21.20
2006,06,27,12,26,21.10
2006,06,27,12,27,21.10
2006,06,27,12,28,21.10
2006,06,27,12,29,21.20
2006,06,27,12,30,21.20
2006,06,27,12,31,21.30
2006,06,27,12,32,21.30
2006,06,27,12,33,21.40
2006,06,27,12,34,21.60
2006,06,27,12,35,21.60
2006,06,27,12,36,21.50
2006,06,27,12,37,21.40
2006,06,27,12,38,21.40
2006,06,27,12,39,21.40
2006,06,27,12,40,21.40
2006,06,27,12,41,21.30
2006,06,27,12,42,21.40
2006,06,27,12,43,21.40
2006,06,27,12,44,21.60
2006,06,27,12,45,21.60
2006,06,27,12,46,21.60
2006,06,27,12,47,21.60
2006,06,27,12,48,21.70
2006,06,27,12,49,21.80
2006,06,27,12,50,21.90
2006,06,27,12,51,22.00
2006,06,27,12,52,22.00
2006,06,27,12,53,22.10
2006,06,27,12,54,22.10
2006,06,27,12,55,22.20
2006,06,27,12,56,22.40
2006,06,27,12,57,22.40
2006,06,27,12,58,22.40
2006,06,27,12,59,22.50
2006,06,27,13,00,22.50
2006,06,27,13,01,22.50
2006,06,27,13,02,22.40
2006,06,27,13,03,22.30
2006,06,27,13,04,22.20
2006,06,27,13,05,22.20
2006,06,27,13,06,22.30
2006,06,27,13,07,22.30
2006,06,27,13,08,22.20
2006,06,27,13,09,22.10
2006,06,27,13,10,21.90
2006,06,27,13,11,21.80
2006,06,27,13,12,21.70
2006,06,27,13,13,21.70
2006,06,27,13,14,21.60
2006,06,27,13,15,21.50
2006,06,27,13,16,21.40
2006,06,27,13,17,21.40
2006,06,27,13,18,21.50
2006,06,27,13,19,21.60
2006,06,27,13,20,21.60
2006,06,27,13,21,21.70
2006,06,27,13,22,21.70
2006,06,27,13,23,21.70
2006,06,27,13,24,21.70
2006,06,27,13,25,21.80
2006,06,27,13,26,21.90
2006,06,27,13,27,21.90
2006,06,27,13,28,21.90
2006,06,27,13,29,21.90
2006,06,27,13,30,21.90
2006,06,27,13,31,21.90
2006,06,27,13,32,21.90
2006,06,27,13,33,21.90
2006,06,27,13,34,22.00
2006,06,27,13,35,22.00
2006,06,27,13,36,22.10
2006,06,27,13,37,22.10
2006,06,27,13,38,22.10
2006,06,27,13,39,22.00
2006,06,27,13,40,22.00
2006,06,27,13,41,21.90
2006,06,27,13,42,21.90
2006,06,27,13,43,21.90
2006,06,27,13,44,22.00
2006,06,27,13,45,22.00
2006,06,27,13,46,22.00
2006,06,27,13,47,22.10
2006,06,27,13,48,22.20
2006,06,27,13,49,22.10
2006,06,27,13,50,22.10
2006,06,27,13,51,22.10
2006,06,27,13,52,22.20
2006,06,27,13,53,22.20
2006,06,27,13,54,22.20
2006,06,27,13,55,22.10
2006,06,27,13,56,21.90
2006,06,27,13,57,21.80
2006,06,27,13,58,21.60
2006,06,27,13,59,21.60
2006,06,27,14,00,21.70
2006,06,27,14,01,21.70
2006,06,27,14,02,21.80
2006,06,27,14,03,21.90
2006,06,27,14,04,22.00
2006,06,27,14,05,22.00
2006,06,27,14,06,22.00
2006,06,27,14,07,21.90
2006,06,27,14,08,21.80
2006,06,27,14,09,21.70
2006,06,27,14,10,21.80
2006,06,27,14,11,21.80
2006,06,27,14,12,22.00
2006,06,27,14,13,22.10
2006,06,27,14,14,22.20
2006,06,27,14,15,22.10
2006,06,27,14,16,22.10
2006,06,27,14,17,22.00
2006,06,27,14,18,22.00
2006,06,27,14,19,22.00
2006,06,27,14,20,21.90
2006,06,27,14,21,21.80
2006,06,27,14,22,21.70
2006,06,27,14,23,21.60
2006,06,27,14,24,21.60
2006,06,27,14,25,21.60
2006,06,27,14,26,21.60
2006,06,27,14,27,21.60
2006,06,27,14,28,21.60
2006,06,27,14,29,21.70
2006,06,27,14,30,21.90
2006,06,27,14,31,22.00
2006,06,27,14,32,22.10
2006,06,27,14,33,22.10
2006,06,27,14,34,22.00
2006,06,27,14,35,21.90
2006,06,27,14,36,21.90
2006,06,27,14,37,21.90
2006,06,27,14,38,21.90
2006,06,27,14,39,21.90
2006,06,27,14,40,21.90
2006,06,27,14,41,21.70
2006,06,27,14,42,21.60
2006,06,27,14,43,21.40
2006,06,27,14,44,21.40
2006,06,27,14,45,21.30
2006,06,27,14,46,21.30
2006,06,27,14,47,21.40
2006,06,27,14,48,21.40
2006,06,27,14,49,21.50
2006,06,27,14,50,21.60
2006,06,27,14,51,21.70
2006,06,27,14,52,21.70
2006,06,27,14,53,21.70
2006,06,27,14,54,21.70
2006,06,27,14,55,21.70
2006,06,27,14,56,21.60
2006,06,27,14,57,21.60
2006,06,27,14,58,21.60
2006,06,27,14,59,21.60
2006,06,27,15,00,21.60
2006,06,27,15,01,21.60
2006,06,27,15,02,21.60
2006,06,27,15,03,21.70
2006,06,27,15,04,21.80
2006,06,27,15,05,21.90
2006,06,27,15,06,21.90
2006,06,27,15,07,21.90
2006,06,27,15,08,22.00
2006,06,27,15,09,22.00
2006,06,27,15,10,22.00
2006,06,27,15,11,22.00
2006,06,27,15,12,22.00
2006,06,27,15,13,22.10
2006,06,27,15,14,22.00
2006,06,27,15,15,21.90
2006,06,27,15,16,21.90
2006,06,27,15,17,21.90
2006,06,27,15,18,22.00
2006,06,27,15,19,22.00
2006,06,27,15,20,22.00
2006,06,27,15,21,22.00
2006,06,27,15,22,22.20
2006,06,27,15,23,22.30
2006,06,27,15,24,22.40
2006,06,27,15,25,22.40
2006,06,27,15,26,22.20
2006,06,27,15,27,22.20
2006,06,27,15,28,22.20
2006,06,27,15,29,22.30
2006,06,27,15,30,22.20
2006,06,27,15,31,22.20
2006,06,27,15,32,22.20
2006,06,27,15,33,22.10
2006,06,27,15,34,22.10
2006,06,27,15,35,22.00
2006,06,27,15,36,22.00
2006,06,27,15,37,22.00
2006,06,27,15,38,22.00
2006,06,27,15,39,22.00
2006,06,27,15,40,22.10
2006,06,27,15,41,22.10
2006,06,27,15,42,22.20
2006,06,27,15,43,22.20
2006,06,27,15,44,22.20
2006,06,27,15,45,22.10
2006,06,27,15,46,21.90
2006,06,27,15,47,21.70
2006,06,27,15,48,21.50
2006,06,27,15,49,21.20
2006,06,27,15,50,21.10
2006,06,27,15,51,20.90
2006,06,27,15,52,20.80
2006,06,27,15,53,20.60
2006,06,27,15,54,20.40
2006,06,27,15,55,20.30
2006,06,27,15,56,20.20
2006,06,27,15,57,20.20
2006,06,27,15,58,20.40
2006,06,27,15,59,20.60
2006,06,27,16,00,20.80
2006,06,27,16,01,21.10
2006,06,27,16,02,21.40
2006,06,27,16,03,21.60
2006,06,27,16,04,21.80
2006,06,27,16,05,21.90
2006,06,27,16,06,22.10
2006,06,27,16,07,22.20
2006,06,27,16,08,22.30
2006,06,27,16,09,22.40
2006,06,27,16,10,22.40
2006,06,27,16,11,22.50
2006,06,27,16,12,22.60
2006,06,27,16,13,22.70
2006,06,27,16,14,22.80
2006,06,27,16,15,22.90
2006,06,27,16,16,23.00
2006,06,27,16,17,23.10
2006,06,27,16,18,23.20
2006,06,27,16,19,23.00
2006,06,27,16,20,22.90
2006,06,27,16,21,22.70
2006,06,27,16,22,22.30
2006,06,27,16,23,22.10
2006,06,27,16,24,22.00
2006,06,27,16,25,21.90
2006,06,27,16,26,22.00
2006,06,27,16,27,22.10
2006,06,27,16,28,22.00
2006,06,27,16,29,22.00
2006,06,27,16,30,22.00
2006,06,27,16,31,21.70
2006,06,27,16,32,21.60
2006,06,27,16,33,21.60
2006,06,27,16,34,22.00
2006,06,27,16,35,22.30
2006,06,27,16,36,22.60
2006,06,27,16,37,23.00
2006,06,27,16,38,23.30
2006,06,27,16,39,23.60
2006,06,27,16,40,23.90
2006,06,27,16,41,24.10
2006,06,27,16,42,24.30
2006,06,27,16,43,24.60
2006,06,27,16,44,24.80
2006,06,27,16,45,24.90
2006,06,27,16,46,25.00
2006,06,27,16,47,25.10
2006,06,27,16,48,25.10
2006,06,27,16,49,25.20
2006,06,27,16,50,25.10
2006,06,27,16,51,25.00
2006,06,27,16,52,24.90
2006,06,27,16,53,24.80
2006,06,27,16,54,24.70
2006,06,27,16,55,24.60
2006,06,27,16,56,24.60
2006,06,27,16,57,24.50
2006,06,27,16,58,24.40
2006,06,27,16,59,24.30
2006,06,27,17,00,24.30
2006,06,27,17,01,24.20
2006,06,27,17,02,24.10
2006,06,27,17,03,24.10
2006,06,27,17,04,24.00
2006,06,27,17,05,24.10
2006,06,27,17,06,23.90
2006,06,27,17,07,23.90
2006,06,27,17,08,23.90
2006,06,27,17,09,23.80
2006,06,27,17,10,23.80
2006,06,27,17,11,23.80
2006,06,27,17,12,23.80
2006,06,27,17,13,23.70
2006,06,27,17,14,23.70
2006,06,27,17,15,23.70
2006,06,27,17,16,23.70
2006,06,27,17,17,23.70
2006,06,27,17,18,23.50
2006,06,27,17,19,23.30